GIA185 WIII-WPDL

Flight info

Callsign GIA185
Flight time 2h 48m
Altitude 39000
Route CA T3 ANY G461 SBR W34 AGUNG W43 MUBOT W42 MUBRA DCT JEMZE JEMZE4V
Aircraft A339/H-SADE1E2E3GHIJ3J5M1P2RWXY/LB2D1

Departure

Time 2026-04-28 12:32
Airport Soekarno-Hatta International Airport (WIII)

Arrival

Time 2026-04-28 15:21
Airport Presidente Nicolau Lobato International Airport (WPDL)
Time Latitude Longitude Altitude Speed Heading
2026-04-28 12:14 -6.12732 106.65893 33 ft 0 kts 210°
2026-04-28 12:20 -6.12731 106.65893 33 ft 0 kts 210°
2026-04-28 12:21 -6.12719 106.65901 33 ft 4 kts 210°
2026-04-28 12:21 -6.12701 106.65912 33 ft 2 kts 169°
2026-04-28 12:22 -6.12697 106.65911 33 ft 0 kts 167°
2026-04-28 12:22 -6.12692 106.65910 33 ft 2 kts 170°
2026-04-28 12:22 -6.12691 106.65909 33 ft 0 kts 175°
2026-04-28 12:26 -6.12697 106.65919 33 ft 3 kts 133°
2026-04-28 12:26 -6.12705 106.65964 33 ft 11 kts 105°
2026-04-28 12:26 -6.12736 106.66022 33 ft 17 kts 123°
2026-04-28 12:26 -6.12858 106.66101 33 ft 25 kts 171°
2026-04-28 12:27 -6.13021 106.66024 33 ft 27 kts 227°
2026-04-28 12:27 -6.13108 106.65865 33 ft 25 kts 237°
2026-04-28 12:27 -6.13252 106.65815 34 ft 23 kts 188°
2026-04-28 12:27 -6.13400 106.65772 32 ft 21 kts 224°
2026-04-28 12:28 -6.13448 106.65643 34 ft 20 kts 251°
2026-04-28 12:28 -6.13494 106.65512 35 ft 20 kts 250°
2026-04-28 12:28 -6.13552 106.65385 35 ft 20 kts 241°
2026-04-28 12:28 -6.13652 106.65298 36 ft 19 kts 209°
2026-04-28 12:29 -6.13769 106.65076 37 ft 19 kts 249°
2026-04-28 12:29 -6.13819 106.64955 36 ft 19 kts 246°
2026-04-28 12:29 -6.13866 106.64830 37 ft 19 kts 250°
2026-04-28 12:30 -6.13914 106.64702 38 ft 20 kts 249°
2026-04-28 12:30 -6.13962 106.64573 38 ft 20 kts 249°
2026-04-28 12:30 -6.14036 106.64479 38 ft 15 kts 189°
2026-04-28 12:30 -6.14138 106.64502 38 ft 16 kts 151°
2026-04-28 12:31 -6.14154 106.64596 36 ft 14 kts 70°
2026-04-28 12:31 -6.14150 106.64605 36 ft 1 kts 69°
2026-04-28 12:31 -6.14075 106.64793 36 ft 71 kts 68°
2026-04-28 12:31 -6.13783 106.65519 34 ft 149 kts 68°
2026-04-28 12:32 -6.13321 106.66634 366 ft 181 kts 66°
2026-04-28 12:32 -6.12842 106.67794 1236 ft 179 kts 68°
2026-04-28 12:32 -6.12374 106.68958 2129 ft 182 kts 68°
2026-04-28 12:32 -6.11890 106.70177 2609 ft 199 kts 69°
2026-04-28 12:33 -6.11352 106.71541 2976 ft 221 kts 69°
2026-04-28 12:33 -6.10804 106.73054 3349 ft 240 kts 74°
2026-04-28 12:33 -6.10482 106.74768 3644 ft 258 kts 85°
2026-04-28 12:33 -6.10448 106.76607 4141 ft 265 kts 90°
2026-04-28 12:34 -6.10434 106.78450 4786 ft 266 kts 89°
2026-04-28 12:34 -6.10400 106.80320 5385 ft 269 kts 89°
2026-04-28 12:34 -6.10355 106.82202 6009 ft 271 kts 89°
2026-04-28 12:34 -6.10307 106.84106 6606 ft 273 kts 88°
2026-04-28 12:35 -6.10257 106.86020 7169 ft 276 kts 88°
2026-04-28 12:35 -6.10207 106.87957 7756 ft 278 kts 89°
2026-04-28 12:35 -6.10158 106.89907 8323 ft 280 kts 88°
2026-04-28 12:35 -6.10108 106.91875 8911 ft 283 kts 89°
2026-04-28 12:36 -6.10058 106.93859 9480 ft 285 kts 89°
2026-04-28 12:36 -6.10008 106.95834 10036 ft 288 kts 89°
2026-04-28 12:36 -6.09957 106.97886 10314 ft 301 kts 89°
2026-04-28 12:36 -6.09931 107.00047 10446 ft 318 kts 94°
2026-04-28 12:37 -6.10475 107.02242 10595 ft 333 kts 114°
2026-04-28 12:37 -6.11850 107.04147 10923 ft 342 kts 136°
2026-04-28 12:37 -6.13861 107.05443 11403 ft 347 kts 156°
2026-04-28 12:37 -6.16139 107.06227 11846 ft 351 kts 161°
2026-04-28 12:38 -6.18470 107.06997 12329 ft 353 kts 160°
2026-04-28 12:38 -6.20805 107.07777 12870 ft 354 kts 160°
2026-04-28 12:38 -6.23153 107.08574 13321 ft 357 kts 160°
2026-04-28 12:38 -6.25522 107.09387 13781 ft 360 kts 160°
2026-04-28 12:39 -6.27901 107.10210 14199 ft 362 kts 160°
2026-04-28 12:39 -6.30291 107.11036 14640 ft 365 kts 160°
2026-04-28 12:39 -6.32638 107.11846 15033 ft 367 kts 160°
2026-04-28 12:39 -6.35088 107.12738 15448 ft 369 kts 156°
2026-04-28 12:40 -6.37400 107.13889 15850 ft 370 kts 149°
2026-04-28 12:40 -6.39559 107.15320 16256 ft 372 kts 142°
2026-04-28 12:40 -6.41517 107.16984 16671 ft 374 kts 136°
2026-04-28 12:40 -6.43296 107.18900 17047 ft 376 kts 129°
2026-04-28 12:41 -6.44842 107.21025 17436 ft 378 kts 122°
2026-04-28 12:41 -6.46134 107.23339 17808 ft 380 kts 115°
2026-04-28 12:41 -6.47278 107.25745 18171 ft 383 kts 116°
2026-04-28 12:41 -6.48450 107.28166 18506 ft 385 kts 116°
2026-04-28 12:42 -6.49635 107.30593 18867 ft 386 kts 116°
2026-04-28 12:42 -6.50823 107.33023 19225 ft 388 kts 116°
2026-04-28 12:42 -6.52002 107.35426 19569 ft 390 kts 116°
2026-04-28 12:42 -6.53223 107.37909 19923 ft 392 kts 116°
2026-04-28 12:43 -6.54379 107.40356 20373 ft 391 kts 114°
2026-04-28 12:43 -6.55384 107.42904 20705 ft 394 kts 110°
2026-04-28 12:43 -6.56221 107.45535 21051 ft 396 kts 106°
2026-04-28 12:43 -6.56890 107.48225 21397 ft 398 kts 103°
2026-04-28 12:44 -6.57390 107.50986 21748 ft 400 kts 99°
2026-04-28 12:44 -6.57730 107.53770 22091 ft 403 kts 97°
2026-04-28 12:44 -6.58055 107.56578 22453 ft 405 kts 98°
2026-04-28 12:44 -6.58391 107.59395 22820 ft 407 kts 98°
2026-04-28 12:45 -6.58731 107.62229 23170 ft 409 kts 98°
2026-04-28 12:45 -6.59073 107.65078 23507 ft 411 kts 98°
2026-04-28 12:45 -6.59411 107.67911 23813 ft 413 kts 98°
2026-04-28 12:45 -6.59754 107.70790 24118 ft 415 kts 98°
2026-04-28 12:46 -6.60099 107.73682 24423 ft 417 kts 98°
2026-04-28 12:46 -6.60445 107.76592 24672 ft 420 kts 97°
2026-04-28 12:46 -6.60794 107.79523 24971 ft 422 kts 97°
2026-04-28 12:46 -6.61143 107.82464 25279 ft 424 kts 97°
2026-04-28 12:47 -6.61495 107.85426 25572 ft 426 kts 97°
2026-04-28 12:47 -6.61845 107.88368 25818 ft 429 kts 97°
2026-04-28 12:47 -6.62200 107.91355 25890 ft 429 kts 97°
2026-04-28 12:47 -6.62553 107.94336 25895 ft 429 kts 97°
2026-04-28 12:48 -6.63023 107.97303 25918 ft 430 kts 102°
2026-04-28 12:48 -6.63640 108.00256 26238 ft 431 kts 102°
2026-04-28 12:48 -6.64243 108.03191 26529 ft 433 kts 102°
2026-04-28 12:48 -6.64856 108.06179 26807 ft 435 kts 102°
2026-04-28 12:49 -6.65471 108.09167 27101 ft 437 kts 102°
2026-04-28 12:49 -6.66090 108.12172 27383 ft 439 kts 102°
2026-04-28 12:49 -6.66709 108.15175 27660 ft 441 kts 101°
2026-04-28 12:49 -6.67339 108.18229 27929 ft 444 kts 101°
2026-04-28 12:50 -6.67960 108.21238 28197 ft 446 kts 101°
2026-04-28 12:50 -6.68594 108.24311 28465 ft 448 kts 101°
2026-04-28 12:50 -6.69231 108.27401 28735 ft 450 kts 101°
2026-04-28 12:50 -6.69868 108.30493 29004 ft 452 kts 101°
2026-04-28 12:51 -6.70498 108.33552 29266 ft 454 kts 101°
2026-04-28 12:51 -6.71140 108.36668 29532 ft 456 kts 101°
2026-04-28 12:51 -6.71788 108.39815 29806 ft 458 kts 101°
2026-04-28 12:51 -6.72435 108.42959 30058 ft 460 kts 101°
2026-04-28 12:52 -6.73087 108.46126 30212 ft 464 kts 101°
2026-04-28 12:52 -6.73742 108.49311 30476 ft 465 kts 101°
2026-04-28 12:52 -6.74399 108.52511 30731 ft 467 kts 101°
2026-04-28 12:52 -6.75050 108.55679 30975 ft 469 kts 101°
2026-04-28 12:53 -6.75720 108.58943 31211 ft 471 kts 101°
2026-04-28 12:53 -6.76385 108.62179 31457 ft 473 kts 101°
2026-04-28 12:53 -6.77051 108.65426 31702 ft 475 kts 101°
2026-04-28 12:53 -6.77711 108.68644 31949 ft 477 kts 101°
2026-04-28 12:54 -6.78384 108.71926 32167 ft 478 kts 101°
2026-04-28 12:54 -6.79060 108.75225 32379 ft 480 kts 101°
2026-04-28 12:54 -6.79736 108.78522 32567 ft 482 kts 101°
2026-04-28 12:54 -6.80412 108.81820 32763 ft 482 kts 101°
2026-04-28 12:55 -6.81088 108.85123 32909 ft 484 kts 101°
2026-04-28 12:55 -6.81762 108.88414 33049 ft 485 kts 101°
2026-04-28 12:55 -6.82443 108.91743 33172 ft 486 kts 101°
2026-04-28 12:55 -6.83126 108.95082 33283 ft 487 kts 101°
2026-04-28 12:56 -6.83809 108.98425 33399 ft 487 kts 101°
2026-04-28 12:56 -6.84493 109.01769 33524 ft 487 kts 101°
2026-04-28 12:56 -6.85177 109.05120 33675 ft 487 kts 101°
2026-04-28 12:56 -6.85851 109.08419 33822 ft 487 kts 101°
2026-04-28 12:57 -6.86534 109.11761 33944 ft 486 kts 101°
2026-04-28 12:57 -6.87216 109.15102 34056 ft 487 kts 101°
2026-04-28 12:57 -6.87897 109.18439 34167 ft 486 kts 101°
2026-04-28 12:57 -6.88577 109.21774 34296 ft 486 kts 101°
2026-04-28 12:58 -6.89250 109.25076 34441 ft 486 kts 101°
2026-04-28 12:58 -6.89929 109.28407 34565 ft 485 kts 101°
2026-04-28 12:58 -6.90608 109.31742 34687 ft 485 kts 101°
2026-04-28 12:58 -6.91284 109.35061 34811 ft 485 kts 101°
2026-04-28 12:59 -6.91961 109.38389 34935 ft 484 kts 101°
2026-04-28 12:59 -6.92639 109.41719 35053 ft 484 kts 101°
2026-04-28 12:59 -6.93313 109.45033 35182 ft 484 kts 101°
2026-04-28 12:59 -6.93989 109.48354 35368 ft 482 kts 101°
2026-04-28 13:00 -6.94652 109.51613 35765 ft 476 kts 101°
2026-04-28 13:00 -6.95311 109.54861 36254 ft 470 kts 101°
2026-04-28 13:00 -6.95958 109.58050 36942 ft 459 kts 101°
2026-04-28 13:00 -6.96586 109.61144 37807 ft 444 kts 101°
2026-04-28 13:01 -6.97196 109.64159 38460 ft 435 kts 102°
2026-04-28 13:01 -6.97798 109.67131 38776 ft 433 kts 102°
2026-04-28 13:01 -6.98403 109.70112 38863 ft 436 kts 102°
2026-04-28 13:02 -6.99621 109.76118 38881 ft 446 kts 102°
2026-04-28 13:02 -7.00880 109.82328 38877 ft 457 kts 101°
2026-04-28 13:03 -7.02164 109.88671 38879 ft 467 kts 101°
2026-04-28 13:03 -7.03467 109.95117 38868 ft 473 kts 101°
2026-04-28 13:04 -7.04783 110.01626 38871 ft 478 kts 101°
2026-04-28 13:04 -7.06113 110.08210 38864 ft 480 kts 101°
2026-04-28 13:05 -7.07446 110.14811 38861 ft 482 kts 101°
2026-04-28 13:05 -7.08781 110.21429 38849 ft 482 kts 101°
2026-04-28 13:06 -7.10111 110.28027 38847 ft 483 kts 101°
2026-04-28 13:06 -7.11448 110.34669 38849 ft 483 kts 101°
2026-04-28 13:07 -7.12775 110.41266 38859 ft 483 kts 101°
2026-04-28 13:07 -7.14110 110.47903 38859 ft 483 kts 101°
2026-04-28 13:08 -7.15444 110.54540 38856 ft 482 kts 101°
2026-04-28 13:08 -7.16775 110.61169 38856 ft 482 kts 101°
2026-04-28 13:09 -7.18103 110.67787 38856 ft 481 kts 101°
2026-04-28 13:09 -7.19418 110.74349 38848 ft 481 kts 101°
2026-04-28 13:10 -7.20743 110.80959 38850 ft 481 kts 101°
2026-04-28 13:10 -7.22069 110.87590 38851 ft 481 kts 101°
2026-04-28 13:11 -7.23385 110.94169 38849 ft 482 kts 101°
2026-04-28 13:11 -7.24709 111.00790 38856 ft 482 kts 101°
2026-04-28 13:12 -7.26031 111.07411 38856 ft 482 kts 101°
2026-04-28 13:12 -7.27353 111.14037 38820 ft 483 kts 101°
2026-04-28 13:13 -7.28449 111.19534 38825 ft 482 kts 101°
2026-04-28 13:13 -7.29985 111.27244 38817 ft 482 kts 101°
2026-04-28 13:14 -7.31302 111.33858 38824 ft 481 kts 101°
2026-04-28 13:14 -7.32397 111.39363 38816 ft 481 kts 101°
2026-04-28 13:15 -7.33716 111.45997 38813 ft 481 kts 101°
2026-04-28 13:15 -7.35021 111.52569 38816 ft 481 kts 101°
2026-04-28 13:16 -7.36333 111.59179 38828 ft 481 kts 101°
2026-04-28 13:16 -7.37645 111.65793 38822 ft 481 kts 101°
2026-04-28 13:17 -7.38956 111.72410 38822 ft 481 kts 101°
2026-04-28 13:17 -7.40266 111.79027 38826 ft 481 kts 101°
2026-04-28 13:18 -7.41575 111.85637 38814 ft 482 kts 101°
2026-04-28 13:18 -7.42884 111.92262 38813 ft 482 kts 101°
2026-04-28 13:19 -7.44183 111.98844 38818 ft 482 kts 101°
2026-04-28 13:19 -7.45492 112.05474 38819 ft 483 kts 101°
2026-04-28 13:20 -7.46802 112.12117 38824 ft 483 kts 101°
2026-04-28 13:20 -7.48111 112.18767 38865 ft 483 kts 101°
2026-04-28 13:21 -7.49413 112.25380 38876 ft 484 kts 101°
2026-04-28 13:21 -7.50725 112.32049 38879 ft 485 kts 101°
2026-04-28 13:22 -7.52036 112.38715 38880 ft 485 kts 101°
2026-04-28 13:22 -7.53345 112.45382 38881 ft 485 kts 101°
2026-04-28 13:23 -7.54656 112.52062 38887 ft 485 kts 101°
2026-04-28 13:23 -7.55956 112.58693 38885 ft 485 kts 101°
2026-04-28 13:24 -7.57266 112.65381 38894 ft 485 kts 101°
2026-04-28 13:24 -7.58572 112.72056 38889 ft 485 kts 101°
2026-04-28 13:25 -7.59872 112.78700 38853 ft 486 kts 101°
2026-04-28 13:25 -7.61172 112.85353 38890 ft 483 kts 101°
2026-04-28 13:26 -7.62467 112.91987 38887 ft 482 kts 101°
2026-04-28 13:26 -7.63761 112.98619 38884 ft 481 kts 101°
2026-04-28 13:27 -7.65053 113.05251 38886 ft 481 kts 101°
2026-04-28 13:27 -7.66336 113.11839 38884 ft 481 kts 101°
2026-04-28 13:28 -7.67610 113.18383 38883 ft 477 kts 101°
2026-04-28 13:28 -7.68899 113.25014 38902 ft 479 kts 101°
2026-04-28 13:29 -7.70172 113.31571 38910 ft 480 kts 101°
2026-04-28 13:29 -7.71458 113.38194 38897 ft 481 kts 101°
2026-04-28 13:30 -7.72746 113.44832 38900 ft 482 kts 101°
2026-04-28 13:30 -7.74036 113.51489 38903 ft 484 kts 101°
2026-04-28 13:31 -7.75964 113.61453 38902 ft 485 kts 101°
2026-04-28 13:31 -7.77256 113.68138 38903 ft 485 kts 101°
2026-04-28 13:32 -7.78550 113.74833 38924 ft 485 kts 101°
2026-04-28 13:32 -7.79827 113.81449 38924 ft 482 kts 101°
2026-04-28 13:33 -7.81107 113.88086 38927 ft 482 kts 101°
2026-04-28 13:33 -7.82384 113.94718 38923 ft 481 kts 101°
2026-04-28 13:34 -7.83661 114.01351 38925 ft 480 kts 101°
2026-04-28 13:34 -7.84936 114.07982 38901 ft 480 kts 101°
2026-04-28 13:35 -7.86196 114.14537 38914 ft 479 kts 101°
2026-04-28 13:35 -7.87461 114.21126 38928 ft 478 kts 101°
2026-04-28 13:36 -7.88727 114.27728 38923 ft 478 kts 101°
2026-04-28 13:36 -7.89991 114.34321 38930 ft 478 kts 101°
2026-04-28 13:37 -7.91247 114.40881 38864 ft 479 kts 101°
2026-04-28 13:37 -7.92516 114.47512 38869 ft 478 kts 101°
2026-04-28 13:38 -7.93769 114.54067 38864 ft 478 kts 101°
2026-04-28 13:38 -7.95030 114.60661 38901 ft 479 kts 100°
2026-04-28 13:39 -7.96291 114.67279 38898 ft 481 kts 100°
2026-04-28 13:39 -7.97557 114.73921 38899 ft 482 kts 100°
2026-04-28 13:40 -7.98814 114.80520 38905 ft 483 kts 100°
2026-04-28 13:40 -8.00086 114.87203 38917 ft 483 kts 100°
2026-04-28 13:41 -8.01350 114.93854 38916 ft 484 kts 100°
2026-04-28 13:41 -8.02622 115.00546 38915 ft 484 kts 100°
2026-04-28 13:42 -8.03881 115.07181 38911 ft 484 kts 100°
2026-04-28 13:42 -8.05148 115.13861 38913 ft 484 kts 100°
2026-04-28 13:43 -8.06415 115.20554 38914 ft 485 kts 100°
2026-04-28 13:43 -8.07680 115.27232 38913 ft 485 kts 100°
2026-04-28 13:44 -8.08944 115.33918 38918 ft 484 kts 100°
2026-04-28 13:44 -8.10205 115.40594 38887 ft 484 kts 100°
2026-04-28 13:45 -8.11458 115.47231 38883 ft 483 kts 100°
2026-04-28 13:45 -8.12714 115.53895 38879 ft 483 kts 100°
2026-04-28 13:46 -8.13973 115.60574 38873 ft 483 kts 100°
2026-04-28 13:46 -8.15221 115.67212 38874 ft 482 kts 100°
2026-04-28 13:47 -8.16472 115.73862 38873 ft 481 kts 100°
2026-04-28 13:47 -8.17714 115.80467 38862 ft 481 kts 100°
2026-04-28 13:48 -8.18959 115.87102 38861 ft 481 kts 100°
2026-04-28 13:48 -8.20207 115.93752 38896 ft 481 kts 100°
2026-04-28 13:49 -8.21454 116.00407 38909 ft 483 kts 100°
2026-04-28 13:49 -8.22697 116.07052 38906 ft 484 kts 100°
2026-04-28 13:50 -8.23949 116.13751 38909 ft 485 kts 100°
2026-04-28 13:50 -8.25200 116.20446 38910 ft 485 kts 100°
2026-04-28 13:51 -8.26452 116.27156 38913 ft 485 kts 100°
2026-04-28 13:51 -8.27695 116.33818 38916 ft 485 kts 100°
2026-04-28 13:52 -8.28943 116.40521 38920 ft 485 kts 100°
2026-04-28 13:52 -8.30192 116.47233 38886 ft 486 kts 100°
2026-04-28 13:53 -8.31438 116.53930 38884 ft 486 kts 99°
2026-04-28 13:53 -8.32684 116.60643 38876 ft 486 kts 100°
2026-04-28 13:54 -8.33923 116.67320 38867 ft 486 kts 100°
2026-04-28 13:54 -8.35168 116.74035 38866 ft 486 kts 100°
2026-04-28 13:55 -8.36411 116.80748 38863 ft 486 kts 100°
2026-04-28 13:55 -8.37653 116.87461 38868 ft 486 kts 99°
2026-04-28 13:56 -8.38888 116.94136 38910 ft 486 kts 99°
2026-04-28 13:56 -8.40130 117.00864 38908 ft 487 kts 99°
2026-04-28 13:57 -8.41371 117.07588 38910 ft 487 kts 99°
2026-04-28 13:57 -8.42614 117.14323 38914 ft 487 kts 99°
2026-04-28 13:58 -8.43854 117.21056 38917 ft 488 kts 99°
2026-04-28 13:58 -8.45097 117.27804 38912 ft 489 kts 99°
2026-04-28 13:59 -8.46334 117.34527 38915 ft 489 kts 99°
2026-04-28 13:59 -8.47425 117.41306 38916 ft 488 kts 95°
2026-04-28 14:00 -8.47729 117.47007 38916 ft 488 kts 91°
2026-04-28 14:00 -8.48109 117.54949 38917 ft 485 kts 91°
2026-04-28 14:01 -8.48384 117.60616 38918 ft 485 kts 91°
2026-04-28 14:01 -8.48709 117.67422 38915 ft 484 kts 91°
2026-04-28 14:02 -8.49032 117.74230 38917 ft 484 kts 91°
2026-04-28 14:02 -8.49353 117.80999 38894 ft 484 kts 91°
2026-04-28 14:03 -8.49673 117.87796 38885 ft 484 kts 91°
2026-04-28 14:03 -8.49992 117.94598 38889 ft 484 kts 91°
2026-04-28 14:04 -8.50308 118.01351 38883 ft 484 kts 91°
2026-04-28 14:04 -8.50626 118.08155 38890 ft 484 kts 91°
2026-04-28 14:05 -8.50942 118.14944 38888 ft 484 kts 91°
2026-04-28 14:05 -8.51254 118.21710 38878 ft 484 kts 91°
2026-04-28 14:06 -8.51567 118.28517 38882 ft 484 kts 91°
2026-04-28 14:06 -8.51879 118.35307 38888 ft 484 kts 91°
2026-04-28 14:07 -8.52191 118.42118 38921 ft 484 kts 91°
2026-04-28 14:07 -8.52499 118.48883 38923 ft 485 kts 91°
2026-04-28 14:08 -8.52809 118.55727 38926 ft 486 kts 91°
2026-04-28 14:08 -8.53116 118.62504 38924 ft 486 kts 91°
2026-04-28 14:09 -8.53424 118.69340 38924 ft 486 kts 91°
2026-04-28 14:09 -8.53745 118.76165 38924 ft 486 kts 91°
2026-04-28 14:10 -8.54074 118.82993 38922 ft 486 kts 91°
2026-04-28 14:10 -8.54397 118.89781 38920 ft 486 kts 91°
2026-04-28 14:11 -8.54720 118.96616 38889 ft 486 kts 91°
2026-04-28 14:11 -8.55039 119.03418 38922 ft 484 kts 91°
2026-04-28 14:12 -8.55357 119.10212 38922 ft 483 kts 91°
2026-04-28 14:12 -8.55672 119.16953 38919 ft 482 kts 91°
2026-04-28 14:13 -8.55987 119.23726 38919 ft 482 kts 91°
2026-04-28 14:13 -8.56300 119.30489 38917 ft 483 kts 91°
2026-04-28 14:14 -8.56614 119.37288 38916 ft 483 kts 91°
2026-04-28 14:14 -8.56896 119.44045 38916 ft 484 kts 91°
2026-04-28 14:15 -8.57130 119.50839 38915 ft 484 kts 91°
2026-04-28 14:15 -8.57367 119.57646 38922 ft 484 kts 91°
2026-04-28 14:16 -8.57611 119.64454 38922 ft 485 kts 91°
2026-04-28 14:16 -8.57853 119.71234 38926 ft 485 kts 91°
2026-04-28 14:17 -8.58096 119.78072 38925 ft 485 kts 91°
2026-04-28 14:17 -8.58337 119.84896 38925 ft 485 kts 91°
2026-04-28 14:18 -8.58575 119.91676 38898 ft 485 kts 91°
2026-04-28 14:18 -8.58813 119.98491 38906 ft 485 kts 91°
2026-04-28 14:19 -8.59050 120.05302 38908 ft 485 kts 91°
2026-04-28 14:19 -8.59286 120.12107 38915 ft 485 kts 91°
2026-04-28 14:20 -8.59519 120.18885 38953 ft 485 kts 91°
2026-04-28 14:20 -8.59752 120.25702 38952 ft 486 kts 91°
2026-04-28 14:21 -8.59986 120.32530 38958 ft 486 kts 91°
2026-04-28 14:21 -8.60218 120.39366 38958 ft 487 kts 91°
2026-04-28 14:22 -8.60450 120.46208 38963 ft 487 kts 91°
2026-04-28 14:22 -8.60619 120.53019 38963 ft 487 kts 90°
2026-04-28 14:23 -8.60731 120.59879 38931 ft 488 kts 90°
2026-04-28 14:23 -8.60855 120.66747 38930 ft 488 kts 90°
2026-04-28 14:24 -8.60984 120.73616 38922 ft 488 kts 90°
2026-04-28 14:24 -8.61114 120.80428 38917 ft 488 kts 90°
2026-04-28 14:25 -8.61243 120.87290 38926 ft 488 kts 90°
2026-04-28 14:25 -8.61370 120.94146 38918 ft 488 kts 90°
2026-04-28 14:26 -8.61495 121.00989 38941 ft 486 kts 90°
2026-04-28 14:26 -8.61619 121.07827 38919 ft 486 kts 90°
2026-04-28 14:27 -8.61741 121.14610 38923 ft 486 kts 90°
2026-04-28 14:27 -8.61863 121.21439 38906 ft 485 kts 90°
2026-04-28 14:28 -8.61984 121.28270 38916 ft 485 kts 90°
2026-04-28 14:28 -8.62102 121.35033 38916 ft 484 kts 90°
2026-04-28 14:29 -8.62219 121.41852 38910 ft 484 kts 90°
2026-04-28 14:29 -8.62336 121.48649 38898 ft 484 kts 90°
2026-04-28 14:30 -8.62452 121.55459 38907 ft 483 kts 90°
2026-04-28 14:30 -8.62565 121.62207 38897 ft 483 kts 89°
2026-04-28 14:31 -8.62677 121.69021 38908 ft 483 kts 90°
2026-04-28 14:31 -8.62796 121.75819 38907 ft 483 kts 90°
2026-04-28 14:32 -8.62986 121.82579 38886 ft 484 kts 90°
2026-04-28 14:32 -8.63183 121.89390 38905 ft 484 kts 90°
2026-04-28 14:33 -8.63376 121.96205 38896 ft 485 kts 90°
2026-04-28 14:33 -8.63557 122.03021 38898 ft 485 kts 90°
2026-04-28 14:34 -8.63826 122.13246 38901 ft 485 kts 90°
2026-04-28 14:35 -8.64003 122.20069 38885 ft 486 kts 90°
2026-04-28 14:35 -8.64028 122.26855 38899 ft 485 kts 87°
2026-04-28 14:36 -8.63806 122.33672 38883 ft 486 kts 87°
2026-04-28 14:36 -8.63595 122.40490 38911 ft 485 kts 87°
2026-04-28 14:37 -8.63384 122.47297 38899 ft 484 kts 87°
2026-04-28 14:37 -8.63171 122.54111 38895 ft 484 kts 87°
2026-04-28 14:38 -8.62956 122.60881 38889 ft 485 kts 87°
2026-04-28 14:38 -8.62739 122.67700 38892 ft 485 kts 87°
2026-04-28 14:39 -8.62520 122.74523 38887 ft 485 kts 87°
2026-04-28 14:39 -8.62302 122.81325 38898 ft 485 kts 87°
2026-04-28 14:40 -8.62081 122.88137 38885 ft 485 kts 87°
2026-04-28 14:40 -8.61861 122.94900 38877 ft 485 kts 87°
2026-04-28 14:41 -8.61640 123.01700 38928 ft 477 kts 87°
2026-04-28 14:41 -8.61421 123.08355 38932 ft 473 kts 87°
2026-04-28 14:42 -8.61201 123.15019 38931 ft 474 kts 87°
2026-04-28 14:42 -8.60979 123.21691 38934 ft 475 kts 87°
2026-04-28 14:43 -8.60758 123.28323 38928 ft 475 kts 87°
2026-04-28 14:43 -8.60534 123.34983 38927 ft 475 kts 87°
2026-04-28 14:44 -8.60309 123.41670 38929 ft 475 kts 87°
2026-04-28 14:44 -8.60082 123.48345 38934 ft 475 kts 86°
2026-04-28 14:45 -8.59855 123.55029 38928 ft 475 kts 86°
2026-04-28 14:45 -8.59665 123.61671 38934 ft 475 kts 88°
2026-04-28 14:46 -8.59529 123.68350 38931 ft 475 kts 88°
2026-04-28 14:46 -8.59385 123.74990 38920 ft 475 kts 87°
2026-04-28 14:47 -8.59232 123.81677 38917 ft 475 kts 87°
2026-04-28 14:47 -8.59103 123.87234 38917 ft 475 kts 87°
2026-04-28 14:48 -8.58922 123.95008 38927 ft 475 kts 87°
2026-04-28 14:48 -8.58791 124.00526 38920 ft 467 kts 88°
2026-04-28 14:49 -8.58610 124.08179 38925 ft 469 kts 88°
2026-04-28 14:49 -8.58479 124.13701 38921 ft 469 kts 88°
2026-04-28 14:50 -8.58321 124.20281 38927 ft 469 kts 88°
2026-04-28 14:50 -8.58162 124.26899 38924 ft 472 kts 88°
2026-04-28 14:51 -8.58001 124.33493 38933 ft 473 kts 88°
2026-04-28 14:51 -8.57838 124.40126 38926 ft 470 kts 88°
2026-04-28 14:52 -8.57675 124.46753 38900 ft 471 kts 87°
2026-04-28 14:52 -8.57588 124.50065 38707 ft 472 kts 88°
2026-04-28 14:52 -8.57504 124.53391 38452 ft 473 kts 88°
2026-04-28 14:52 -8.57424 124.56674 38197 ft 473 kts 88°
2026-04-28 14:53 -8.57342 124.60001 37938 ft 473 kts 88°
2026-04-28 14:53 -8.57260 124.63334 37675 ft 474 kts 88°
2026-04-28 14:53 -8.57176 124.66668 37418 ft 474 kts 88°
2026-04-28 14:53 -8.57092 124.70010 37166 ft 475 kts 88°
2026-04-28 14:54 -8.57007 124.73357 36913 ft 476 kts 88°
2026-04-28 14:54 -8.56922 124.76669 36667 ft 477 kts 88°
2026-04-28 14:54 -8.56836 124.80024 36421 ft 477 kts 88°
2026-04-28 14:54 -8.56750 124.83377 36181 ft 478 kts 88°
2026-04-28 14:55 -8.56664 124.86747 35939 ft 479 kts 88°
2026-04-28 14:55 -8.56577 124.90118 35701 ft 480 kts 88°
2026-04-28 14:55 -8.56489 124.93492 35465 ft 480 kts 88°
2026-04-28 14:55 -8.56401 124.96873 35227 ft 481 kts 88°
2026-04-28 14:56 -8.56314 125.00196 35006 ft 482 kts 88°
2026-04-28 14:56 -8.56225 125.03615 34780 ft 483 kts 88°
2026-04-28 14:56 -8.56221 125.07024 34543 ft 484 kts 94°
2026-04-28 14:56 -8.56705 125.10387 34322 ft 485 kts 103°
2026-04-28 14:57 -8.57711 125.13638 34098 ft 486 kts 111°
2026-04-28 14:57 -8.58655 125.15703 33958 ft 487 kts 117°
2026-04-28 14:57 -8.60835 125.19670 33570 ft 488 kts 118°
2026-04-28 14:57 -8.62472 125.22675 32878 ft 489 kts 118°
2026-04-28 14:58 -8.64106 125.25693 32268 ft 487 kts 118°
2026-04-28 14:58 -8.65728 125.28695 31528 ft 485 kts 118°
2026-04-28 14:58 -8.67343 125.31687 30970 ft 481 kts 118°
2026-04-28 14:58 -8.68942 125.34645 30490 ft 478 kts 118°
2026-04-28 14:59 -8.70513 125.37550 30162 ft 474 kts 118°
2026-04-28 14:59 -8.72093 125.40471 29806 ft 471 kts 118°
2026-04-28 14:59 -8.73666 125.43383 29376 ft 470 kts 118°
2026-04-28 14:59 -8.75228 125.46276 28921 ft 467 kts 118°
2026-04-28 15:00 -8.76780 125.49148 28466 ft 463 kts 118°
2026-04-28 15:00 -8.78317 125.51995 28059 ft 457 kts 118°
2026-04-28 15:00 -8.79818 125.54774 27419 ft 456 kts 118°
2026-04-28 15:00 -8.81339 125.57591 26745 ft 454 kts 118°
2026-04-28 15:01 -8.82833 125.60361 26357 ft 445 kts 118°
2026-04-28 15:01 -8.84314 125.63104 25785 ft 442 kts 118°
2026-04-28 15:01 -8.85798 125.65854 24964 ft 444 kts 118°
2026-04-28 15:01 -8.87228 125.68567 24440 ft 438 kts 115°
2026-04-28 15:02 -8.88194 125.71482 24130 ft 428 kts 101°
2026-04-28 15:02 -8.88475 125.74423 23743 ft 426 kts 89°
2026-04-28 15:02 -8.88099 125.77441 22894 ft 431 kts 76°
2026-04-28 15:02 -8.87064 125.80235 22182 ft 429 kts 63°
2026-04-28 15:03 -8.85414 125.82739 21457 ft 426 kts 50°
2026-04-28 15:03 -8.83242 125.84770 20761 ft 423 kts 37°
2026-04-28 15:03 -8.80681 125.86162 20408 ft 413 kts 21°
2026-04-28 15:03 -8.77930 125.86811 20230 ft 398 kts
2026-04-28 15:04 -8.75221 125.86664 20078 ft 384 kts 349°
2026-04-28 15:04 -8.72810 125.85749 19924 ft 370 kts 330°
2026-04-28 15:04 -8.70863 125.84129 19781 ft 357 kts 310°
2026-04-28 15:04 -8.69634 125.82018 19609 ft 344 kts 290°
2026-04-28 15:05 -8.69153 125.79645 18904 ft 350 kts 270°
2026-04-28 15:05 -8.69523 125.77185 17972 ft 360 kts 250°
2026-04-28 15:05 -8.70474 125.74798 16961 ft 369 kts 244°
2026-04-28 15:05 -8.71554 125.72424 16362 ft 369 kts 244°
2026-04-28 15:06 -8.72555 125.70131 16192 ft 353 kts 245°
2026-04-28 15:06 -8.73473 125.67885 16057 ft 337 kts 246°
2026-04-28 15:06 -8.74310 125.65733 15881 ft 319 kts 247°
2026-04-28 15:06 -8.75091 125.63676 15415 ft 310 kts 247°
2026-04-28 15:07 -8.75800 125.61628 14791 ft 308 kts 254°
2026-04-28 15:07 -8.76127 125.59527 14216 ft 305 kts 266°
2026-04-28 15:07 -8.76093 125.57397 13597 ft 302 kts 271°
2026-04-28 15:07 -8.76023 125.55287 12947 ft 298 kts 270°
2026-04-28 15:08 -8.75970 125.53202 12297 ft 295 kts 270°
2026-04-28 15:08 -8.75926 125.51142 11661 ft 291 kts 270°
2026-04-28 15:08 -8.75919 125.49129 11254 ft 279 kts 265°
2026-04-28 15:08 -8.76176 125.47237 10922 ft 264 kts 259°
2026-04-28 15:09 -8.76479 125.45433 10598 ft 258 kts 260°
2026-04-28 15:09 -8.76767 125.43638 10272 ft 259 kts 260°
2026-04-28 15:09 -8.77049 125.41842 9953 ft 256 kts 261°
2026-04-28 15:09 -8.77234 125.40662 9740 ft 256 kts 261°
2026-04-28 15:10 -8.77601 125.38299 9279 ft 254 kts 261°
2026-04-28 15:10 -8.77875 125.36531 8932 ft 253 kts 261°
2026-04-28 15:10 -8.78145 125.34779 8573 ft 251 kts 261°
2026-04-28 15:10 -8.78412 125.33058 8234 ft 250 kts 261°
2026-04-28 15:11 -8.78681 125.31326 7908 ft 248 kts 261°
2026-04-28 15:11 -8.78930 125.29595 7455 ft 250 kts 265°
2026-04-28 15:11 -8.78649 125.27872 6988 ft 250 kts 294°
2026-04-28 15:11 -8.77615 125.26479 6513 ft 249 kts 322°
2026-04-28 15:12 -8.76085 125.25650 5933 ft 252 kts 341°
2026-04-28 15:12 -8.74389 125.25104 5114 ft 263 kts 345°
2026-04-28 15:12 -8.72566 125.24546 4033 ft 282 kts 343°
2026-04-28 15:12 -8.70653 125.24080 3326 ft 282 kts 357°
2026-04-28 15:13 -8.68751 125.24267 2947 ft 268 kts 17°
2026-04-28 15:13 -8.67007 125.24742 2730 ft 251 kts 15°
2026-04-28 15:13 -8.65368 125.25157 2624 ft 234 kts 14°
2026-04-28 15:13 -8.63860 125.25513 2610 ft 216 kts 14°
2026-04-28 15:14 -8.62444 125.25832 2596 ft 200 kts 14°
2026-04-28 15:14 -8.61132 125.26137 2595 ft 189 kts 14°
2026-04-28 15:14 -8.59827 125.26443 2608 ft 192 kts 15°
2026-04-28 15:14 -8.58690 125.27085 2633 ft 189 kts 49°
2026-04-28 15:15 -8.58125 125.28252 2617 ft 189 kts 84°
2026-04-28 15:15 -8.58073 125.29126 2609 ft 188 kts 91°
2026-04-28 15:15 -8.58105 125.30876 2606 ft 187 kts 92°
2026-04-28 15:15 -8.58112 125.32187 2609 ft 185 kts 90°
2026-04-28 15:16 -8.58085 125.33431 2594 ft 169 kts 88°
2026-04-28 15:16 -8.58037 125.34585 2616 ft 167 kts 88°
2026-04-28 15:16 -8.57979 125.35751 2606 ft 162 kts 88°
2026-04-28 15:16 -8.57922 125.36882 2628 ft 155 kts 88°
2026-04-28 15:17 -8.57870 125.37886 2606 ft 137 kts 88°
2026-04-28 15:17 -8.57775 125.38903 2588 ft 147 kts 79°
2026-04-28 15:17 -8.57531 125.39888 2610 ft 147 kts 76°
2026-04-28 15:17 -8.57290 125.40869 2612 ft 143 kts 77°
2026-04-28 15:18 -8.57058 125.41849 2579 ft 144 kts 77°
2026-04-28 15:18 -8.56832 125.42822 2422 ft 141 kts 77°
2026-04-28 15:18 -8.56615 125.43780 2065 ft 141 kts 77°
2026-04-28 15:18 -8.56395 125.44749 1692 ft 139 kts 78°
2026-04-28 15:19 -8.56177 125.45718 1589 ft 146 kts 78°
2026-04-28 15:19 -8.55953 125.46714 1528 ft 143 kts 78°
2026-04-28 15:19 -8.55735 125.47701 1022 ft 153 kts 76°
2026-04-28 15:19 -8.55500 125.48740 701 ft 140 kts 75°
2026-04-28 15:20 -8.55281 125.49728 535 ft 145 kts 77°
2026-04-28 15:20 -8.55013 125.50706 309 ft 138 kts 75°
2026-04-28 15:20 -8.54809 125.51671 86 ft 147 kts 77°
2026-04-28 15:20 -8.54614 125.52560 25 ft 95 kts 77°
2026-04-28 15:21 -8.54540 125.52915 31 ft 17 kts 79°
2026-04-28 15:21 -8.54556 125.53017 30 ft 12 kts 142°
2026-04-28 15:21 -8.54591 125.52999 30 ft 5 kts 249°
2026-04-28 15:21 -8.54640 125.52836 29 ft 32 kts 253°
2026-04-28 15:22 -8.54691 125.52626 28 ft 31 kts 257°
2026-04-28 15:22 -8.54804 125.52471 26 ft 26 kts 195°
2026-04-28 15:22 -8.54835 125.52473 26 ft 0 kts 169°
2026-04-28 15:23 -8.54806 125.52536 26 ft 0 kts 169°
2026-04-28 15:23 -8.54808 125.52543 26 ft 0 kts 169°